Westford, VT (05494)

1:28 PM EDT on October 01, 2016 (GMT -0400)
Coyote Ridge | | Change Station

Elev 472 ft 44.63 °N, 73.01 °W | Updated 4 seconds ago

Overcast
Overcast
59.5 °F
Feels Like 59.5 °F
N
0.0
Wind Variable Wind from South
Gusts 0.0 mph

Today
High -- | Low -- °F
--% Chance of Precip.
Yesterday
High -- | Low -- °F
Precip. -- in
Pressure 30.30 in
Visibility 10.0 miles
Clouds Few 4100 ft
Mostly Cloudy 5000 ft
Overcast 6000 ft
Dew Point 48 °F
Humidity 66%
Rainfall 0.02 in
Snow Depth Not available.
6:50 AM 6:31 PM
New Moon, 0% visible
METAR KBTV 011654Z 00000KT 10SM FEW041 BKN050 OVC060 16/07 A3029 RMK AO2 SLP260 T01560072
Pressure 30.30 in
Visibility 10.0 miles
Clouds Few 4100 ft
Mostly Cloudy 5000 ft
Overcast 6000 ft
Dew Point 48 °F
Humidity 66%
Rainfall 0.02 in
Snow Depth Not available.
6:50 AM 6:31 PM
New Moon, 0% visible
METAR KBTV 011654Z 00000KT 10SM FEW041 BKN050 OVC060 16/07 A3029 RMK AO2 SLP260 T01560072

10-Day Weather Forecast

Almanac

Astronomy

Oct. 01, 2016 Rise Set
Actual Time
Civil Twilight
Nautical Twilight
Astronomical Twilight
Moon
Length of Visible Light
Length of Day
Tomorrow will be .
, % of the Moon is Illuminated

Today's Extremes

State Highs State Lows

Community

WunderPhotos

Upload Photos

1,942,963 photos uploaded!

WunderBlog® & News

Nearby

Air Quality

  Air Quality AQ Index Pollutant
Not available.

Snow Depth

Station Depth Elevation

Earthquake Activity

City Distance Mag. Time & Date
Minimum magnitude displayed is 2.5.

Coastal Water Temperatures

Place Temperature

Stations

Nearby Weather Stations

Station Location Temp. Windchill Dew Point Humidity Wind Precip. Elev Updated Type
                   

Watches & Warnings

There are currently no watches in effect.